Other Public Products
Issued by NWS Grand Forks, ND

Home | Current Version | Previous Version | Text Only | Print | Product List | Glossary On
Versions: 1 2 3 4 5 6 7 8 9 10 11 12 13 14 15 16 17 18 19 20 21 22 23 24 25 26 27 28 29 30 31 32 33 34 35 36 37 38 39 40 41 42 43 44 45 46 47 48 49 50
000
FPUS83 KFGF 160731
OPUFGF
PRAIRIE TO PINES WEATHER ROUNDUP
NATIONAL WEATHER SERVICE EASTERN NORTH DAKOTA/GRAND FORKS ND
200 AM CDT TUE SEP 16 2014

 **SATELLITE DATA USED TO AUGMENT SKY COVER AT AUTOMATED STATIONS**
 *****  WEATHER ACROSS EASTERN NORTH DAKOTA  *****

CITY           SKY/WX    TMP DP  RH WIND       PRES   REMARKS
GRAND FORKS    CLEAR     43  39  86 SW6       30.06S
GRAND FORKS AF CLEAR     46  40  80 SW6       30.06F
GRAND CITY NWS   N/A     46 N/A N/A SW5         N/A
BUXTON           N/A     46  44  90 SW6         N/A
DEVILS LAKE    CLEAR     54  37  54 SW12      30.06S
FARGO          CLEAR     50  38  63 SW13      30.12S
WAHPETON ARPT  SUNNY     41  34  75 S6        30.15F
$$

 *****  WEATHER ACROSS CENTRAL AND WESTERN NORTH DAKOTA  *****

CITY           SKY/WX    TMP DP  RH WIND       PRES   REMARKS
JAMESTOWN      CLEAR     43  37  79 S8        30.11F
BISMARCK       CLEAR     45  38  76 E3        30.11S
MINOT          CLEAR     51  40  65 SW9       30.05S
MINOT AFB      CLEAR     48  40  75 SW6       30.04F
GARRISON         N/A     45  40  82 CALM      30.07F
WILLISTON      CLEAR     39  34  82 N3        30.05S
DICKINSON      CLEAR     43  38  82 S10       30.05F
HETTINGER      CLEAR     44  37  76 E5        30.09F
$$

 *****  OTHER OBSERVATIONS NORTHEAST NORTH DAKOTA  *****

CITY           SKY/WX    TMP DP  RH WIND       PRES   REMARKS
WALHALLA       FAIR      57  36  44 SW9       30.01S
LANGDON        FAIR      41  37  87 SW9       30.04S
CAVALIER       FAIR      50  37  62 SW7       30.01F
GRAFTON        FAIR      45  39  81 SW9       30.03F
CANDO          FAIR      45  37  76 SW9       30.05F
FORT TOTTEN    NOT AVBL
ROLLA          FAIR      48  37  66 SW13      30.05S
RUGBY          FAIR      45  39  81 SW8       30.05S
 ***** THE ABOVE OBSERVATIONS ARE NON NWS ARE NOT QUALITY
        CONTROLLED AND MAY MIS-REPORT RAIN FOR SNOW...
$$

 *****  OTHER OBSERVATIONS SOUTHEAST NORTH DAKOTA *****

CITY           SKY/WX    TMP DP  RH WIND       PRES   REMARKS
COOPERSTOWN    NOT AVBL
VALLEY CITY    FAIR      46  37  71 SW14      30.11F
OAKES            N/A     39  39 100 S8        30.15S
GWINNER        SUNNY     43  37  81 SW8       30.16S
SHEYENNE NWR     N/A     42  38  84 SW7       29.95S
BUFFALO          N/A     46  37  70 SW9         N/A
WYNDMERE         N/A     39  37  93 SW2         N/A
 ***** THE ABOVE OBSERVATIONS ARE NON NWS ARE NOT QUALITY
       CONTROLLED AND MAY MIS-REPORT RAIN FOR SNOW...
$$

  *****  WEATHER ACROSS NORTHERN MINNESOTA  *****

CITY           SKY/WX    TMP DP  RH WIND       PRES   REMARKS
FLAG ISLAND    CLEAR     48  39  71 SW18      29.96F
WARROAD        CLEAR     46  41  81 SW7       30.02S
ROSEAU         CLEAR     43  37  81 S8        30.02S
HALLOCK        PTCLDY    41  37  87 S6        30.02S
THF RVR FALLS  CLEAR     46  39  76 SW9       30.07S
HALSTAD          N/A     45  39  79 SW9         N/A
FOSSTON        CLEAR     39  36  87 S6        30.11S
BAUDETTE       PTCLDY    44  39  82 SW5       30.03R
WASKISH        CLEAR     52  45  76 SW9       30.06S
CROOKSTON      CLEAR     43  39  87 S7        30.08F
$$
  *****  WEATHER ACROSS CENTRAL AND WEST MINNESOTA  *****

CITY           SKY/WX    TMP DP  RH WIND       PRES   REMARKS
BEMIDJI        CLEAR     46  38  73 SW7       30.10S
PARK RAPIDS    CLEAR     43  38  82 SW7       30.13S
WADENA         CLEAR     39  36  87 CALM      30.15S
DETROIT LAKES  CLEAR     48  37  66 SW8       30.14S
MOORHEAD       CLEAR     46  43  87 S5        30.14S
FERGUS FALLS   CLEAR     43  34  70 S6        30.17F
ELBOW LAKE     FAIR      39  35  86 S7        30.17S
MORRIS MN      CLEAR     39  36  87 S6        30.18S
STAPLES        CLEAR     45  36  70 SW6       30.16S
WHEATON        CLEAR     41  36  81 S7        30.19S
$$
  *****  WEATHER ELSEWHERE ACROSS MINNESOTA  *****

CITY           SKY/WX    TMP DP  RH WIND       PRES   REMARKS
DULUTH         CLEAR     46  35  65 W12       30.12F
INTRNTL FALLS  CLEAR     39  36  89 SW7       30.03S
ELY            MOCLDY    45  36  70 SW7       30.07F
CLOQUET        CLEAR     43  36  75 SW6       30.13S
BRAINERD       CLEAR     40  35  83 SW6       30.16S
HIBBING        CLEAR     32  29  88 CALM      30.10F
ALEXANDRIA     CLEAR     45  36  70 SW9       30.19F
SAINT CLOUD    CLEAR     43  39  86 CALM      30.19S
MINNEAPOLIS    CLEAR     47  41  80 SW3       30.21S
$$

  *****  WEATHER ACROSS SOUTH DAKOTA  *****

CITY           SKY/WX    TMP DP  RH WIND       PRES   REMARKS
SIOUX FALLS    CLEAR     43  41  93 CALM      30.23F
BROOKINGS      NOT AVBL
WATERTOWN      CLEAR     41  36  82 SE3       30.20S
HURON          CLEAR     42  35  76 S5        30.19F
SISSETON         N/A     49  39  68 SW12      30.16F
ABERDEEN       CLEAR     34  33  96 S6        30.17F
MITCHELL       CLEAR     44  39  82 S8        30.21F
PIERRE         CLEAR     49  38  65 SE12      30.12F
MOBRIDGE       CLEAR     50  41  71 S13       30.11F
RAPID CITY     CLEAR     48  42  80 SE6       30.07F
$$

  *****  SOME WEATHER IN NEARBY STATES *****

CITY           SKY/WX    TMP DP  RH WIND       PRES   REMARKS
GLASGOW MT     CLEAR     46  37  71 E10       30.03S
GREAT FALLS MT CLEAR     46  37  71 SW6       30.02S
CHEYENNE WY    PTCLDY    52  46  80 W9        30.23F
SCOTTSBLUFF NE PTCLDY    53  49  86 E10       30.14F
OMAHA NE       PTCLDY    48  46  93 CALM      30.28R FOG
DES MOINES IA  CLEAR     49  44  83 CALM      30.25S
DAVENPORT IA   CLEAR     42  40  92 CALM      30.23S
CHICAGO IL     CLEAR     50  47  89 NW6       30.18S
EAU CLAIRE WI  CLEAR     42  39  89 SW3       30.20S
LA CROSSE WI   CLEAR     46  43  89 SE5       30.22S
$$

  *****  SOME NATIONAL WEATHER *****

CITY           SKY/WX    TMP DP  RH WIND       PRES   REMARKS
LA GUARDIA NY  CLOUDY    63  54  72 S5        30.04F
RALEIGH NC     CLOUDY    68  65  90 W5        30.07F
ATLANTA GA     CLOUDY    72  70  93 CALM      30.10F
NEW ORLEANS LA MOCLDY    77  75  93 W3        30.07F
OKLAHOMA CITY  MOCLDY    75  68  78 CALM      30.16S
ALBUQUERQUE NM CLOUDY    65  59  81 NW3       30.32S
SALT LAKE CITY CLEAR     68  43  40 SE9       30.08S
LOS ANGELES CA CLEAR     76  61  59 SE3       29.78S
BOISE ID       CLOUDY    76  41  28 E12G21    29.95F
SEATTLE WA     MOCLDY    65  48  54 CALM      29.83S
$$

*** WEATHER ACROSS MANITOBA...SASKATCHEWAN AND ONTARIO ***
                ***ONTARIO***

CITY           SKY/WX    TMP DP  RH WIND       PRES   REMARKS
GERALDTON      MOCLDY    46  43  87 W8        29.90F
THUNDER BAY    CLEAR     36  36 100 W7        30.03F
SIOUX LOOKOUT  CLOUDY    48  39  71 SW7       29.94S
TORONTO        PTCLDY    52  48  87 NW9       30.03S
BIG TROUT LK   MOCLDY    32  30  93 N8        29.92R WCI  25
PICKLE LAKE    NOT AVBL
DRYDEN         MOCLDY    46  37  71 SW9       29.95F
KENORA         CLEAR     48  41  76 SW8       29.96F
$$
                *** MANITOBA***

CITY           SKY/WX    TMP DP  RH WIND       PRES   REMARKS
BRANDON        PTCLDY    45  41  87 W7        30.01S
DAUPHIN        CLOUDY    57  46  67 W7        29.95R
ISLAND LAKE    CLOUDY    36  32  87 CALM      30.02R
PILOT MOUND      N/A     43  37  81 SW9         N/A
THE PAS        CLOUDY    43  37  81 E6        30.04R
THOMPSON       PTCLDY    23  21  93 CALM      30.10R
WINNIPEG       PTCLDY    55  41  58 SW13      29.96S
LYNN LAKE      PTCLDY    25  21  86 MISG      30.12R
CHURCHILL      LGT SNOW  34  30  86 N22       30.03R WCI  22
$$
                ***SASKATCHEWAN***

CITY           SKY/WX    TMP DP  RH WIND       PRES   REMARKS
ESTEVAN        CLEAR     41  36  81 W5        30.04R
KINDERSLEY     CLEAR     45  39  81 S8        29.97S
LLOYDMINSTER   CLEAR     50  43  76 SE6       29.95S
PRINCE ALBERT  MOCLDY    48  48 100 NE6       29.95S
REGINA         CLEAR     45  37  76 S3        30.02R
YORKTON        CLOUDY    55  45  67 W5        29.98R


USA.gov is the U.S. government's official web portal to all federal, state and local government web resources and services.